Location: Antioch Baptist Church
(32.7160°N, 96.7483°W)
Time: 18:07:41
(UTC+00:00)

Milstar 3 Cent rocket - Pass Details

Date: 05 December 2023
Orbit: 706 x 5146 km, 28.3° (Epoch: 20 February)

Event Time Altitude Azimuth Distance (km) Brightness Sun altitude
Exits shadow 12:01:55 15° 251° (WSW) 2,033 3.7 -15.0°
Maximum altitude 12:05:39 34° 192° (SSW) 1,559 3.6 -14.2°
Drops below altitude 10° 12:12:58 10° 130° (SE) 3,680 6.7 -12.8°
Sets 12:17:34 0° 123° (ESE) 5,335 8.1 -11.9°
